User: anonymous   Login
Location: Muenchen
(48.1800°N, 11.5800°E)
Time: 12:40:36
(UTC+02:00)
Language:

Cosmos 2233 Rocket - Orbit

View from above orbital plane
View from above orbital plane
View from above satellite
View from above satellite

Ground track
Ground track

The orbit data is extracted from the following two-line orbital elements,

1 22488U 93008B   17178.87234994 +.00000026 +00000-0 +10847-4 0  9996
2 22488 082.9436 070.4908 0024975 192.2554 215.5282 13.77722564225447
Epoch (UTC): 27 June 2017 20:56:11
Eccentricity: 0.0024975
inclination: 82.9436°
perigee height: 953 km
apogee height: 990 km
right ascension of ascending node: 70.4908°
argument of perigee: 192.2554°
revolutions per day: 13.77722564
mean anomaly at epoch: 215.5282°
orbit number at epoch: 22544

The dashed part of the orbit path shows where the satellite is in the earth's shadow,  

DLR